Location: Luxembourg
(49.6117°N, 6.1300°E)
Time: 15:08:44
(UTC+01:00)

OTV 5 (USA 277) - Pass Details

Date: 27 January 2019
Orbit: 342 x 346 km, 54.5° (Epoch: 17 February)

Event Time Altitude Azimuth Distance (km) Brightness Sun altitude
Exits shadow 06:41:54 - 206° (SSW) 1,786 ? -15.0°
Reaches altitude 10° 06:43:15 10° 195° (SSW) 1,288 ? -14.8°
Maximum altitude 06:45:37 23° 139° (SE) 776 ? -14.4°
Drops below altitude 10° 06:48:00 10° 83° (E) 1,296 ? -14.0°
Sets 06:50:13 0° 68° (ENE) 2,140 ? -13.7°
